Regional Weather Roundup
Issued by NWS Sterling, VA

Home | Current Version | Previous Version | Graphics & Text | Print | Product List | Glossary On
Versions: 1 2 3 4 5 6 7 8 9 10 11 12 13 14 15 16 17 18 19 20 21 22 23 24 25 26 27 28 29 30 31 32 33 34 35 36 37 38 39 40 41 42 43 44 45 46 47 48 49 50
000
ASUS41 KLWX 061810
RWRLWX

REGIONAL WEATHER ROUNDUP
NATIONAL WEATHER SERVICE BALTIMORE MD/WASHINGTON DC
200 PM EDT MON JUL 06 2015

Note: "FAIR" indicates few or no clouds below 12,000 feet
with no significant weather and/or obstructions to visibility.
 TC=TEMPERATURE CELSIUS

 * =Non NWS site. Station does not report precipitation (e.g. rain,
    snow, etc.), thunder, or fog.

DCZ001-MDZ009-015-VAZ040>042-051-053>054-061900-
WASHINGTON METRO

CITY           SKY/WX    TMP DP  RH WIND       PRES   REMARKS
WASHINGTON NAT PTSUNNY   86  73  65 S10       30.09F HX  93
DULLES         PTSUNNY   81  71  71 S9        30.08F
ANDREWS AFB    PTSUNNY   84  80  88 S9        30.08F HX  97
FT BELVOIR     PTSUNNY   84  73  70 SE8       30.07F HX  90
QUANTICO       PTSUNNY   83  72  69 S8        30.08F
COLLEGE PARK*  PTSUNNY   84  70  61 S7        30.08F
LEESBURG*      PTSUNNY   84  73  70 S13G20    30.08F HX  91
MANASSAS*      PTSUNNY   82  73  74 S5        30.07F
GAITHERSBURG*  CLOUDY    84  72  65 SE10G18   30.12F

$$

MDZ006>007-011-014-061900-
BALTIMORE METRO

CITY           SKY/WX    TMP DP  RH WIND       PRES   REMARKS
BWI AIRPORT    PTSUNNY   82  72  71 SE10      30.08F
MD SCIENCE CTR   N/A     82  71  69 MISG      30.09F
MARTIN STATE   PTSUNNY   84  75  74 SE10      30.10F HX  92
ANNAPOLIS      MOSUNNY   81  72  74 SE15      30.08F

$$

MDZ012-015-019>023-061900-
MARYLAND EASTERN SHORE

CITY           SKY/WX    TMP DP  RH WIND       PRES   REMARKS
OCEAN CITY     CLOUDY    82  70  66 S7        30.11F
SALISBURY      PTSUNNY   85  72  65 MISG      30.10F HX  91
BAY BRIDGE AP*   N/A     82  70  65 SE10      30.09F
CAMBRIDGE*     PTSUNNY   84  70  61 S8        30.10F
EASTON*        MOSUNNY   86  73  66 SW12      30.13F HX  93

$$

MDZ017>025-061900-
SOUTHERN MARYLAND

CITY           SKY/WX    TMP DP  RH WIND       PRES   REMARKS
PATUXENT RIVER PTSUNNY   81  74  79 SE10      30.09F
ST INIGOES     NOT AVBL
LEONARDTOWN*   CLOUDY    81  70  69 S3        30.11F

$$

MDZ003>005-061900-
NORTH CENTRAL MARYLAND

CITY           SKY/WX    TMP DP  RH WIND       PRES   REMARKS
FREDERICK*     PTSUNNY   82  75  78 S9        30.10F
HAGERSTOWN APT PTSUNNY   83  69  62 SE12      30.07F
WESTMINSTER*   MOSUNNY   84  75  74 SE9G16    30.10F HX  92

$$

MDZ501>502-061900-
WESTERN MARYLAND

CITY           SKY/WX    TMP DP  RH WIND       PRES   REMARKS
OAKLAND*       PTSUNNY   68 N/A N/A SE8       30.16F
CUMBERLAND*      N/A     72  70  94 S5          N/A

$$

VAZ025>031-061900-
SHENANDOAH VALLEY

CITY           SKY/WX    TMP DP  RH WIND       PRES   REMARKS
WINCHESTER*    CLOUDY    81  70  69 S12       30.08S
FRONT ROYAL*   FAIR      82  70  65 SE8       30.06F
LURAY*         MOCLDY    82  70  65 S10       30.07F
NEW MARKET*    CLOUDY    80  69  68 S10       30.05F
STAUNTON*      CLOUDY    82  68  63 S9        30.11F
WAYNESBORO*    CLOUDY    77  67  71 S6        30.11S

$$

WVZ021-048>050-054>055-061900-
EASTERN WEST VIRGINIA PANHANDLE

CITY           SKY/WX    TMP DP  RH WIND       PRES   REMARKS
MARTINSBURG    PTSUNNY   82  70  66 SE12G22   30.07F
PETERSBURG*    PTSUNNY   79  68  70 CALM      30.07F

$$

VAZ036>039-050-061900-
CENTRAL FOOTHILLS

CITY           SKY/WX    TMP DP  RH WIND       PRES   REMARKS
CHARLOTTESVILL MOSUNNY   77  71  82 CALM      30.08F
CULPEPER*      CLOUDY    80  71  74 CALM      30.08F
ORANGE*        CLOUDY    75  72  88 SW6       30.10S
GORDONSVILLE*  MOCLDY    79  72  78 S6        30.08F
WARRENTON*     PTSUNNY   85  74  71 S8        30.07F HX  92

$$

VAZ055>057-061900-
NORTH AND CENTRAL PIEDMONT

CITY           SKY/WX    TMP DP  RH WIND       PRES   REMARKS
FREDERICKSBRG* PTSUNNY   85  73  66 S3        30.06F HX  91
STAFFORD*      PTSUNNY   83  71  68 S3        30.11F

$$

NCZ024-NYZ072-PAZ021-071-VAZ022-071-061900-
OTHER REGIONAL OBSERVATIONS

CITY           SKY/WX    TMP DP  RH WIND       PRES   REMARKS
NEW YORK CITY  PTSUNNY   83  64  52 VRB5      30.18F
PHILADELPHIA   PTSUNNY   84  70  62 S7        30.11F
PITTSBURGH     LGT RAIN  71  69  93 SW7       30.07F
ROANOKE        RAIN      72  70  93 W9        30.12S FOG
RICHMOND       PTSUNNY   85  71  63 S12G20    30.08F HX  90
RALEIGH        MOSUNNY   87  70  56 SW14G20   30.10F HX  92

$$

ANZ530>537-061900-
MARINE OBSERVATIONS

STATION/POSITION TIME  TEMP    WIND        PRES
                       AIR SEA DIR/SP/G
                 (UTC) (F)     (DEG/KT/KT) (MB)
THOMAS PT LIGHT  NOT AVBL
BALT KEY BRIDGE  1700   78     110/ 11/ 12 1019.3F
COVE POINT       1700   78     180/ 13/ 14 1020.3F
LEWISETTA        1700   83 82  200/ 11/ 12 1019.1F
SOLOMONS ISLAND  1700      81                N/A
PINEY POINT      1700          140/  8/  8   N/A

$$




USA.gov is the U.S. government's official web portal to all federal, state and local government web resources and services.